Hourly Data Report for September 01, 2017

All times are specified in Local Standard Time (LST). Add 1 hour to adjust for Daylight Saving Time where and when it is observed.

GRAND MANAN SAR CS
NEW BRUNSWICK

44°42'43.400" N
66°48'06.900" W
78.20 m
8101925
71030
XGM

Download Data

Hourly Data (September 2017)
Hourly Data Report for September 1, 2017
Temp Definition
°C
Dew Point Temp Definition
°C
Rel Hum Definition
%
Wind Dir Definition
10's deg

Wind Spd Definition
km/h
Visibility Definition
km
Stn Press Definition
kPa
Hmdx Definition


Wind Chill Definition


Weather Definition


TIME
00:00 12.6 8.8 78 29 10   99.93     LegendNANA
01:00 12.4 8.4 77 29 11   99.95     LegendNANA
02:00 11.2 8.5 84 30 9   99.96     LegendNANA
03:00 10.7 8.2 84 29 11   99.98     LegendNANA
04:00 10.4 7.9 85 29 11   99.97     LegendNANA
05:00 9.8 7.5 86 27 10   99.97     LegendNANA
06:00 9.4 6.8 84 30 12   100.01     LegendNANA
07:00 10.0 6.7 80 30 10   100.06     LegendNANA
08:00 10.6 6.9 78 29 12   100.07     LegendNANA
09:00 12.6 6.7 67 29 14   100.07     LegendNANA
10:00 13.6 6.2 61 29 15   100.06     LegendNANA
11:00 13.3 5.2 58 28 15   100.04     LegendNANA
12:00 15.2 4.9 50 28 14   100.00     LegendNANA
13:00 16.4 5.2 48 24 13   100.01     LegendNANA
14:00 15.1 3.5 46 27 14   100.02     LegendNANA
15:00 16.1 2.2 39 30 18   100.02     LegendNANA
16:00 13.9 3.0 48 29 17   100.08     LegendNANA
17:00 13.0 4.1 54 30 19   100.18     LegendNANA
18:00 12.9 4.5 57 30 16   100.26     LegendNANA
19:00 12.7 4.8 59 30 16   100.35     LegendNANA
20:00 12.4 5.0 61 30 14   100.42     LegendNANA
21:00 12.5 5.1 61 30 15   100.51     LegendNANA
22:00 12.3 5.6 64 31 13   100.57     LegendNANA
23:00 11.9 5.6 65 32 15   100.63     LegendNANA

Notes on Data Quality.

Legend

  • E = Estimated
  • M = Missing
  • NA = Not Available
  • ‡ = Partner data that is not subject to review by the National Climate Archives
Date modified: